KB0OJV Weather Reports


time (UTC)temp
C
wind
direction
speed
KPH
gust
KPH
rain 1hr
cm
rain 24hr
cm
rain mn
cm
humidity
%
barometer
mb
20260503005509 16 265 16.1 30.6 0.00 0.00 0.00 40 1011.3
20260503005014 16 267 24.1 33.8 0.00 0.00 0.00 39 1011.4
20260503004520 16 270 17.7 33.8 0.00 0.00 0.00 38 1011.3
20260503004005 16 261 20.9 30.6 0.00 0.00 0.00 38 1011.2
20260503003506 16 260 17.7 27.4 0.00 0.00 0.00 38 1011.1
20260503003015 16 265 17.7 27.4 0.00 0.00 0.00 37 1011.0
20260503002506 16 244 6.4 14.5 0.00 0.00 0.00 38 1011.1
20260503002012 16 238 6.4 14.5 0.00 0.00 0.00 37 1011.1
20260503001522 17 254 8.0 12.9 0.00 0.00 0.00 38 1011.1
20260503001008 17 240 4.8 16.1 0.00 0.00 0.00 39 1011.1
20260503000509 17 216 8.0 16.1 0.00 0.00 0.00 40 1011.2
20260503000023 17 219 3.2 14.5 0.00 0.00 0.00 39 1011.2
20260502235505 17 130 4.8 14.5 0.00 0.00 0.00 40 1011.3
20260502234011 17 182 1.6 4.8 0.00 0.00 0.00 38 1011.3
20260502233508 17 153 3.2 6.4 0.00 0.00 0.00 37 1011.3
20260502233016 17 208 3.2 6.4 0.00 0.00 0.00 40 1011.5
20260502232508 17 118 3.2 11.3 0.00 0.00 0.00 40 1011.5
20260502232011 17 240 4.8 11.3 0.00 0.00 0.00 39 1011.7
20260502231517 17 240 8.0 14.5 0.00 0.00 0.00 37 1011.6
20260502231007 17 214 9.7 16.1 0.00 0.00 0.00 37 1011.7
20260502230508 17 250 8.0 19.3 0.00 0.00 0.00 37 1011.9
20260502225508 17 253 12.9 19.3 0.00 0.00 0.00 37 1011.8
20260502225009 17 263 9.7 19.3 0.00 0.00 0.00 36 1011.8
20260502224514 17 248 12.9 19.3 0.00 0.00 0.00 35 1011.8
20260502224010 17 252 6.4 20.9 0.00 0.00 0.00 34 1011.9
20260502223509 17 272 9.7 20.9 0.00 0.00 0.00 34 1012.0
20260502223024 18 238 12.9 20.9 0.00 0.00 0.00 35 1012.1
20260502222508 18 260 6.4 16.1 0.00 0.00 0.00 34 1012.1
20260502222007 18 267 11.3 20.9 0.00 0.00 0.00 34 1012.2
20260502221516 18 281 14.5 20.9 0.00 0.00 0.00 34 1012.2
20260502221008 18 253 11.3 20.9 0.00 0.00 0.00 34 1012.2
20260502220511 18 257 12.9 16.1 0.00 0.00 0.00 36 1012.4
20260502220025 18 225 8.0 17.7 0.00 0.00 0.00 36 1012.4
20260502215510 18 246 11.3 24.1 0.00 0.00 0.00 32 1012.4
20260502215009 18 245 12.9 24.1 0.00 0.00 0.00 35 1012.5
20260502214522 18 246 11.3 24.1 0.00 0.00 0.00 34 1012.5
20260502214010 18 217 16.1 24.1 0.00 0.00 0.00 32 1012.7
20260502213511 19 227 11.3 22.5 0.00 0.00 0.00 30 1012.8
20260502213028 19 240 16.1 25.7 0.00 0.00 0.00 31 1012.8
20260502212511 19 246 17.7 25.7 0.00 0.00 0.00 31 1012.9
20260502212008 19 266 12.9 24.1 0.00 0.00 0.00 33 1013.0
20260502211518 19 221 9.7 24.1 0.00 0.00 0.00 31 1013.1
20260502211008 19 263 12.9 24.1 0.00 0.00 0.00 31 1013.2
20260502210507 19 257 12.9 25.7 0.00 0.00 0.00 31 1013.4
20260502210022 19 252 17.7 25.7 0.00 0.00 0.00 33 1013.6
20260502205508 19 262 11.3 22.5 0.00 0.00 0.00 33 1013.6
20260502205008 18 254 16.1 27.4 0.00 0.00 0.00 34 1013.6
20260502204522 18 282 12.9 27.4 0.00 0.00 0.00 34 1013.6
20260502204008 18 259 14.5 27.4 0.00 0.00 0.00 32 1013.8
20260502203512 18 240 14.5 27.4 0.00 0.00 0.00 32 1013.9
20260502203024 18 241 16.1 24.1 0.00 0.00 0.00 30 1013.9
20260502202508 18 246 14.5 24.1 0.00 0.00 0.00 35 1014.0
20260502202010 18 282 16.1 24.1 0.00 0.00 0.00 34 1014.2
20260502201535 18 232 14.5 25.7 0.00 0.00 0.00 33 1014.2
20260502201010 18 276 17.7 29.0 0.00 0.00 0.00 34 1014.3
20260502200510 18 265 22.5 29.0 0.00 0.00 0.00 30 1014.4
20260502200017 18 263 14.5 27.4 0.00 0.00 0.00 34 1014.5
20260502195508 18 240 11.3 24.1 0.00 0.00 0.00 34 1014.7
20260502195009 18 240 16.1 25.7 0.00 0.00 0.00 31 1014.8
20260502194534 18 275 16.1 25.7 0.00 0.00 0.00 35 1015.0
20260502194008 17 257 14.5 20.9 0.00 0.00 0.00 32 1015.0
20260502193508 17 264 14.5 20.9 0.00 0.00 0.00 36 1015.2
20260502193020 17 250 11.3 24.1 0.00 0.00 0.00 33 1015.2
20260502192512 17 216 14.5 25.7 0.00 0.00 0.00 32 1015.3
20260502192013 17 253 16.1 25.7 0.00 0.00 0.00 33 1015.3
20260502191536 17 247 17.7 25.7 0.00 0.00 0.00 33 1015.4
20260502190510 16 265 16.1 22.5 0.00 0.00 0.00 35 1015.5
20260502190026 16 237 14.5 27.4 0.00 0.00 0.00 35 1015.7
20260502185509 16 293 14.5 27.4 0.00 0.00 0.00 34 1015.8
20260502185010 16 247 19.3 24.1 0.00 0.00 0.00 34 1015.8
20260502184530 16 209 9.7 22.5 0.00 0.00 0.00 35 1015.9
20260502184009 16 262 16.1 24.1 0.00 0.00 0.00 33 1016.2
20260502183514 16 219 14.5 24.1 0.00 0.00 0.00 35 1016.3
20260502183021 16 262 16.1 24.1 0.00 0.00 0.00 34 1016.3
20260502182511 16 221 11.3 25.7 0.00 0.00 0.00 34 1016.3
20260502181011 16 267 11.3 19.3 0.00 0.00 0.00 36 1016.6
20260502180509 16 285 11.3 22.5 0.00 0.00 0.00 32 1016.7
20260502164010 14 290 20.9 30.6 0.00 0.00 0.00 36 1017.9
20260502163507 14 303 12.9 25.7 0.00 0.00 0.00 37 1017.9
20260502163042 14 271 17.7 25.7 0.00 0.00 0.00 38 1018.0
20260502162509 14 282 11.3 32.2 0.00 0.00 0.00 38 1018.0
20260502162006 14 273 20.9 32.2 0.00 0.00 0.00 38 1018.1
20260502161521 13 249 17.7 25.7 0.00 0.00 0.00 37 1018.1
20260502161012 13 224 11.3 25.7 0.00 0.00 0.00 37 1018.1
20260502160513 13 275 12.9 25.7 0.00 0.00 0.00 37 1018.3
20260502152011 12 295 11.3 22.5 0.00 0.00 0.00 40 1018.5
20260502151521 12 257 12.9 22.5 0.00 0.00 0.00 40 1018.5
20260502151006 12 243 16.1 24.1 0.00 0.00 0.00 40 1018.6
20260502150511 12 262 17.7 24.1 0.00 0.00 0.00 42 1018.7
20260502130506 5 267 9.7 14.5 0.00 0.00 0.00 71 1019.2
20260502123511 2 272 4.8 11.3 0.00 0.00 0.00 80 1019.1
20260502123017 1 254 6.4 9.7 0.00 0.00 0.00 81 1019.1
20260502122508 1 262 4.8 6.4 0.00 0.00 0.00 81 1019.1
20260502122010 1 257 3.2 6.4 0.00 0.00 0.00 80 1019.1
20260502121527 0 259 3.2 6.4 0.00 0.00 0.00 81 1019.1
20260502121010 0 263 0.0 4.8 0.00 0.00 0.00 83 1019.1
20260502120508 0 254 0.0 4.8 0.00 0.00 0.00 83 1019.1
20260502115508 0 257 3.2 4.8 0.00 0.00 0.00 85 1019.0
20260502115009 0 292 0.0 3.2 0.00 0.00 0.00 86 1019.0
20260502114522 0 288 0.0 4.8 0.00 0.00 0.00 87 1018.9
20260502114010 0 277 1.6 4.8 0.00 0.00 0.00 87 1018.9
20260502113511 0 273 3.2 4.8 0.00 0.00 0.00 87 1018.9
20260502113024 -1 286 1.6 6.4 0.00 0.00 0.00 87 1018.8
20260502112508 -1 284 3.2 6.4 0.00 0.00 0.00 86 1018.8
20260502112006 -1 288 3.2 6.4 0.00 0.00 0.00 85 1018.7
20260502111521 -1 290 3.2 6.4 0.00 0.00 0.00 85 1018.7
20260502111008 0 284 3.2 6.4 0.00 0.00 0.00 85 1018.7
20260502110509 0 261 0.0 0.0 0.00 0.00 0.00 85 1018.6
20260502110019 0 261 0.0 0.0 0.00 0.00 0.00 85 1018.6
20260502105508 0 261 0.0 0.0 0.00 0.00 0.00 85 1018.6
20260502105007 0 261 0.0 0.0 0.00 0.00 0.00 85 1018.5
20260502104523 0 261 0.0 0.0 0.00 0.00 0.00 85 1018.5
20260502104010 0 261 0.0 0.0 0.00 0.00 0.00 85 1018.5
20260502103513 0 261 0.0 0.0 0.00 0.00 0.00 85 1018.5
20260502103026 0 261 0.0 0.0 0.00 0.00 0.00 85 1018.5
20260502102511 0 261 0.0 0.0 0.00 0.00 0.00 85 1018.5
20260502102011 0 261 0.0 0.0 0.00 0.00 0.00 85 1018.5
20260502101525 0 261 0.0 0.0 0.00 0.00 0.00 84 1018.5
20260502101010 0 261 0.0 0.0 0.00 0.00 0.00 84 1018.5
20260502100510 0 261 0.0 0.0 0.00 0.00 0.00 84 1018.5
20260502091522 0 261 0.0 3.2 0.00 0.00 0.00 86 1018.4
20260502091010 0 261 3.2 4.8 0.00 0.00 0.00 87 1018.4
20260502090509 0 265 3.2 6.4 0.00 0.00 0.00 87 1018.4
20260502071520 0 20 0.0 0.0 0.00 0.00 0.00 84 1018.7
20260502071012 0 20 0.0 0.0 0.00 0.00 0.00 84 1018.7
20260502070518 0 20 0.0 0.0 0.00 0.00 0.00 83 1018.7
20260502070036 0 20 0.0 0.0 0.00 0.00 0.00 83 1018.8
20260502065509 0 21 0.0 0.0 0.00 0.00 0.00 83 1018.8
20260502065010 0 20 0.0 0.0 0.00 0.00 0.00 83 1018.8
20260502064537 0 20 0.0 0.0 0.00 0.00 0.00 82 1018.9
20260502064006 0 20 0.0 0.0 0.00 0.00 0.00 82 1018.9
20260502063512 0 54 0.0 0.0 0.00 0.00 0.00 81 1018.9
20260502063018 0 54 0.0 0.0 0.00 0.00 0.00 81 1019.0
20260502062508 0 54 0.0 0.0 0.00 0.00 0.00 81 1018.9
20260502061522 0 54 0.0 0.0 0.00 0.00 0.00 80 1018.9
20260502060507 0 54 0.0 0.0 0.00 0.00 0.00 79 1018.9
20260502055509 0 54 0.0 0.0 0.00 0.00 0.00 79 1018.9
20260502055010 1 54 0.0 0.0 0.00 0.00 0.00 79 1018.9
20260502054520 1 54 0.0 0.0 0.00 0.00 0.00 78 1018.9
20260502054009 1 54 0.0 0.0 0.00 0.00 0.00 77 1018.9
20260502053508 1 54 0.0 0.0 0.00 0.00 0.00 76 1019.0
20260502053029 1 54 0.0 0.0 0.00 0.00 0.00 75 1018.9
20260502052507 1 54 0.0 0.0 0.00 0.00 0.00 76 1019.0
20260502052016 1 54 0.0 0.0 0.00 0.00 0.00 76 1018.9
20260502051519 1 54 0.0 0.0 0.00 0.00 0.00 75 1019.0
20260502051008 1 54 0.0 0.0 0.00 0.00 0.00 74 1019.0
20260502050511 1 54 0.0 0.0 0.00 0.00 0.00 75 1019.0
20260502050020 1 54 0.0 0.0 0.00 0.00 0.00 75 1019.1
20260502045510 1 54 0.0 0.0 0.00 0.00 0.00 73 1019.0
20260502045011 1 54 0.0 0.0 0.00 0.00 0.00 74 1019.0
20260502044522 1 54 0.0 0.0 0.00 0.00 0.00 73 1019.0
20260502044008 1 54 0.0 0.0 0.00 0.00 0.00 73 1019.0
20260502043508 1 54 0.0 0.0 0.00 0.00 0.00 73 1019.1
20260502043024 1 54 0.0 0.0 0.00 0.00 0.00 73 1019.1
20260502042511 2 54 0.0 0.0 0.00 0.00 0.00 72 1019.0
20260502042010 2 54 0.0 0.0 0.00 0.00 0.00 70 1018.9
20260502041525 2 54 0.0 0.0 0.00 0.00 0.00 70 1018.9
20260502041008 2 54 0.0 0.0 0.00 0.00 0.00 72 1018.9
20260502040510 2 54 0.0 0.0 0.00 0.00 0.00 70 1019.0
20260502040017 2 54 0.0 0.0 0.00 0.00 0.00 70 1019.1
20260502035510 2 54 0.0 0.0 0.00 0.00 0.00 69 1019.1
20260502035011 2 54 0.0 0.0 0.00 0.00 0.00 69 1019.2
20260502034535 2 54 0.0 0.0 0.00 0.00 0.00 67 1019.2
20260502034010 2 54 0.0 0.0 0.00 0.00 0.00 68 1019.2
20260502033510 3 54 0.0 0.0 0.00 0.00 0.00 67 1019.2
20260502033025 3 54 0.0 0.0 0.00 0.00 0.00 67 1019.2
20260502032509 3 54 0.0 0.0 0.00 0.00 0.00 66 1019.2
20260502032012 3 54 0.0 0.0 0.00 0.00 0.00 65 1019.2
20260502031527 3 54 0.0 0.0 0.00 0.00 0.00 65 1019.2
20260502031011 3 54 0.0 0.0 0.00 0.00 0.00 64 1019.1
20260502030510 3 54 0.0 0.0 0.00 0.00 0.00 64 1019.1
20260502030026 3 39 0.0 0.0 0.00 0.00 0.00 64 1019.1
20260502025508 3 39 0.0 0.0 0.00 0.00 0.00 63 1019.1
20260502025009 4 39 0.0 0.0 0.00 0.00 0.00 62 1019.1
20260502024520 4 39 0.0 0.0 0.00 0.00 0.00 63 1019.0
20260502024011 4 39 0.0 0.0 0.00 0.00 0.00 63 1019.0
20260502023511 5 39 0.0 0.0 0.00 0.00 0.00 61 1018.9
20260502023020 5 39 0.0 0.0 0.00 0.00 0.00 58 1018.9
20260502022509 5 350 0.0 0.0 0.00 0.00 0.00 56 1018.9
20260502022009 5 350 0.0 0.0 0.00 0.00 0.00 56 1018.9
20260502021524 6 350 0.0 0.0 0.00 0.00 0.00 58 1018.8
20260502021009 6 350 0.0 0.0 0.00 0.00 0.00 54 1018.8
20260502020511 6 350 0.0 0.0 0.00 0.00 0.00 54 1018.8
20260502020028 6 350 0.0 0.0 0.00 0.00 0.00 52 1018.7
20260502015509 7 350 0.0 0.0 0.00 0.00 0.00 51 1018.7
20260502015010 7 350 0.0 0.0 0.00 0.00 0.00 50 1018.7
20260502014547 7 350 0.0 0.0 0.00 0.00 0.00 49 1018.6
20260502014010 8 350 0.0 0.0 0.00 0.00 0.00 49 1018.5
20260502013506 8 350 0.0 0.0 0.00 0.00 0.00 48 1018.5
20260502013021 8 350 0.0 0.0 0.00 0.00 0.00 47 1018.5
20260502012509 9 350 0.0 0.0 0.00 0.00 0.00 47 1018.4
20260502012007 10 350 0.0 0.0 0.00 0.00 0.00 1018.4
20260502011523 10 350 0.0 0.0 0.00 0.00 0.00 46 1018.4
20260502011010 10 350 0.0 3.2 0.00 0.00 0.00 46 1018.4
20260502010511 10 350 0.0 6.4 0.00 0.00 0.00 42 1018.4
20260502010022 10 350 1.6 6.4 0.00 0.00 0.00 37 1018.4